RH
59 62 64 70 74 80 83 82 78 74 71 70 70 71 71 69 59 60 66 62 66 59 57 63 60 56 65 65 71 64 62 60
54 64 67 78 80 83 84 83 80 69 66 68 63 61 64 72 63 64 66 65 65 64 61 68 58 52 61 72 71 74 71 68
60 68 73 79 81 83 81 79 82 70 69 67 67 63 60 65 69 65 63 69 68 61 62 62 61 59 71 74 72 70 67 63
56 71 75 75 80 80 76 76 81 80 73 71 74 70 67 65 72 63 65 67 67 63 62 63 64 60 67 72 71 68 66 66
38 60 70 74 75 74 71 72 80 80 78 68 70 67 68 63 63 60 66 68 62 63 63 61 63 60 67 68 65 66 65 66
39 52 59 65 70 78 73 73 76 78 79 75 71 70 60 63 63 71 76 72 68 60 61 63 62 60 64 66 69 67 63 62
28 48 61 67 76 82 80 76 75 79 79 81 72 74 67 65 69 76 72 76 65 63 61 62 63 62 62 62 65 66 63 63
57 58 69 72 82 84 81 76 76 81 82 81 74 69 65 67 69 72 75 73 66 68 65 65 60 63 64 64 66 68 65 61
67 67 68 73 80 82 81 75 75 76 78 75 70 60 56 59 66 65 70 66 65 69 66 64 65 64 62 62 60 61 65 62
69 69 72 76 83 84 81 77 77 78 78 80 76 68 63 60 67 68 70 67 66 69 69 68 69 67 64 62 58 61 61 61
69 70 75 76 79 80 80 80 81 81 84 86 80 69 63 66 68 71 71 72 66 71 72 69 69 66 64 61 60 62 62 59
71 72 73 75 80 82 84 86 93 94 92 92 88 85 79 82 75 69 72 74 74 72 72 72 68 68 65 62 62 62 60 60
88 74 74 78 80 86 92 93 95 99 95 94 94 91 90 86 83 73 75 72 70 70 70 70 67 66 69 69 71 72 68 65
75 80 84 84 84 92 92 95 95 95 93 94 94 93 96 95 91 85 80 76 77 77 77 75 75 97 91 94 75 71 78 99
57 77 80 87 84 88 95 98 96 92 91 87 98 89 78 83 91 80 79 72 87 100 100 100 98 99 97 97 96 95 88 88
48 67 79 84 84 87 94 95 96 93 92 84 81 76 72 74 73 70 67 69 69 99 96 100 98 91 79 74 69 84 82 84
47 62 72 78 82 91 94 95 94 91 90 78 76 76 74 72 68 68 66 66 67 67 69 72 83 58 77 71 56 51 51 57
60 59 60 76 84 89 95 94 91 90 82 77 76 74 67 70 70 74 77 74 69 69 70 69 66 61 77 70 55 38 39 47
79 85 86 76 73 84 91 93 90 89 88 90 74 72 69 66 66 72 78 87 83 89 84 80 75 68 77 67 58 46 50 54
Wind_Speed
18 20 17 15 14 13 15 13 14 15 10 9 7 6 5 5 7 7 10 7 8 6 7 9 8 7 8 11 12 11 12 12
14 19 18 16 13 13 14 15 15 13 12 11 10 10 7 5 7 9 9 9 9 8 6 8 8 9 10 12 12 15 12 13
11 15 18 19 18 17 16 16 16 15 11 10 6 9 6 5 4 8 9 8 9 8 9 8 10 10 12 13 14 11 9 6
11 15 19 18 20 22 21 21 19 15 17 11 10 8 7 6 7 8 8 10 8 8 7 6 9 9 11 12 12 11 9 5
9 13 16 20 22 19 21 20 21 18 19 16 18 12 12 7 9 8 7 9 10 10 10 8 7 6 11 11 9 8 10 8
9 14 17 17 17 17 17 17 18 18 18 16 14 13 8 10 9 12 8 7 7 9 9 8 7 5 7 9 9 9 7 7
10 10 12 13 14 16 16 19 18 18 17 16 18 17 15 12 11 8 8 5 7 8 8 8 7 7 7 7 7 7 5 5
12 9 11 12 15 16 15 18 18 17 17 16 17 17 17 18 16 11 12 8 7 9 9 8 7 8 8 8 8 8 7 6
11 8 7 10 13 16 16 17 17 18 17 17 16 19 11 11 12 12 8 8 9 11 9 9 10 9 8 8 7 7 9 7
8 5 5 8 11 15 18 18 16 17 16 14 13 14 16 14 14 14 9 10 9 11 10 10 10 9 9 10 8 9 9 8
5 4 8 10 13 15 16 16 15 15 14 11 10 11 11 14 13 14 13 9 11 12 13 11 10 10 9 9 9 10 11 8
6 9 8 10 12 14 14 12 14 14 14 13 12 12 11 8 11 11 14 12 10 11 13 12 11 11 9 9 9 10 10 10
6 9 10 10 12 12 11 12 13 14 16 14 14 12 16 13 12 12 12 13 11 12 13 13 11 10 9 10 10 9 10 10
10 8 10 12 13 11 11 11 11 12 13 14 14 14 13 14 13 12 13 14 11 11 12 13 11 8 9 7 10 10 10 8
13 11 11 10 13 11 8 6 6 9 11 12 12 15 15 15 14 14 14 15 13 10 9 11 10 8 8 8 7 8 8 7
14 12 12 11 10 9 9 10 12 9 9 12 14 13 14 13 15 15 15 14 12 9 10 10 9 9 8 11 11 10 10 9
13 13 11 12 12 10 6 6 11 14 12 11 13 13 15 16 16 16 15 14 13 13 11 12 12 7 13 13 13 11 12 12
6 3 5 6 9 8 6 9 12 13 12 11 13 13 17 17 17 15 14 14 13 13 12 11 11 10 17 18 16 11 12 12
5 3 1 5 8 14 13 11 13 13 14 14 12 13 15 16 17 16 16 14 14 11 12 12 12 10 20 20 15 12 10 11
Wind_Direction
218 214 207 199 187 188 179 167 167 161 150 140 139 141 144 155 161 161 157 161 158 155 144 147 148 142 141 139 137 126 120 118
215 211 201 195 191 186 179 166 165 162 165 157 162 169 161 144 158 156 158 155 155 152 154 152 155 153 146 144 133 129 124 132
217 205 204 202 191 190 180 178 171 175 177 174 157 150 155 142 139 151 153 158 157 161 162 169 155 141 145 150 149 139 136 165
212 203 206 203 199 190 183 181 175 174 170 155 131 120 129 149 160 159 153 156 156 159 166 165 158 152 156 164 167 160 151 168
239 221 213 209 208 199 192 181 173 171 167 171 167 167 161 168 165 152 149 164 162 163 161 170 170 161 162 163 166 161 161 153
234 224 224 214 205 199 194 179 178 171 173 168 167 165 159 149 156 145 145 150 164 161 155 157 152 156 158 160 165 169 161 158
294 254 223 213 198 189 181 179 178 171 169 174 172 164 158 151 154 148 147 144 155 163 148 153 145 141 153 148 153 163 155 159
311 270 221 204 190 185 183 181 178 173 169 172 173 171 163 161 158 157 151 156 164 166 155 153 147 142 134 126 131 137 152 152
332 311 236 207 193 186 183 187 179 176 173 169 166 169 164 164 159 151 148 157 162 160 154 148 140 132 126 126 121 120 123 121
342 324 217 192 192 193 189 187 180 176 175 164 171 164 161 162 154 134 156 148 161 154 147 140 137 132 133 127 120 118 115 115
295 250 217 196 199 196 195 192 182 169 160 164 161 152 158 150 149 144 142 140 163 151 143 146 139 138 134 126 126 129 128 131
255 243 232 216 198 193 192 176 165 155 146 150 148 141 133 148 130 150 144 146 151 150 144 143 143 142 141 135 135 139 139 131
257 254 219 211 207 194 183 173 171 165 162 154 149 155 142 145 147 152 145 141 156 154 145 144 144 138 144 149 150 157 143 140
232 223 215 208 209 192 190 189 186 173 155 152 152 151 147 148 147 153 140 143 150 154 146 145 141 134 142 150 158 147 135 125
247 221 216 215 218 197 158 134 145 141 146 146 147 160 158 151 148 148 144 147 148 147 137 128 129 137 141 141 131 120 115 112
265 237 216 216 215 210 169 155 140 144 146 154 161 153 145 143 145 146 147 153 153 131 125 119 128 143 150 153 143 129 124 122
261 237 224 216 210 202 179 152 156 148 157 163 144 148 140 146 147 146 147 143 142 142 142 148 145 152 153 151 144 137 135 133
283 247 236 217 226 187 190 178 163 148 154 145 141 150 148 148 145 145 143 140 143 145 146 152 144 148 152 150 149 143 138 146
32 40 285 252 225 188 174 175 163 159 152 146 150 152 149 151 151 148 142 139 146 145 149 146 143 149 154 148 148 142 148 148